Weather in Baie-Comeau

Canada     49°12′40″N   68°10′41″W
temp.,
°C
wind,
m/s
gust,
m/s
humid.,
%
clouds,
%
prec.,
mm/h
press.,
hPa
HPBL,
m
15 may, sat
sat1523:00+4n22785 0.0 102114
02:00+3n22745 0.0 102118
05:00+2nne227659 0.0 102235
08:00+8e345597 0.0 1023538
11:00+10e355269 0.0 1023653
14:00+11ese5652100 0.0 1021707
17:00+9e476689 0.1 1021443
20:00+6e248462 0.1 102286
16 may, sun
sun1623:00+6ne257688 0.0 1023202
02:00+5nne237480 0.0 102388
05:00+5ne1277100 0.1 102570
08:00+6e238295 0.1 1027317
11:00+10se336431 0.0 1026859
14:00+11ese346133 0.0 1026715
17:00+10ese446115 0.0 1025483
20:00+6e2783100 0.0 1026184
17 may, mon
mon1723:00+6e2783100 0.0 1026207
02:00+5e2695100 3.4 1027285
05:00+5ese2698100 0.9 1027279
08:00+5ese359598 0.9 1027324
11:00+7ese3483100 0.0 1027421
14:00+8ese337287 0.0 1025417
17:00+11ese236539 0.0 1023444
20:00+6e2390100 0.0 102246
18 may, tue
tue1823:00+6e2793100 0.8 1021220
02:00+5ene1294100 1.1 101945
05:00+5nne0197100 1.8 101882
08:00+5ssw1198100 4.9 101888
11:00+12nnw367297 0.1 10181323
14:00+16nnw363365 0.1 10172064
17:00+16nnw473087 0.0 10172197
20:00+10nnw2246100 0.0 101922
19 may, wed
wed1923:00+7nw2251100 0.0 102136
02:00+5nnw225720 0.0 102233
05:00+5nnw225917 0.0 102339
08:00+11se1143100 0.0 1025432
11:00+8sse1259100 0.0 1026167
14:00+13se324258 0.0 1025906
17:00+12se334747 0.0 1024395
20:00+6e12684 0.0 102422